International Virtual Aviation Organisation

Russian Federation and Kazakhstan MCD

 

Карточка аэропорта UWUU

Внимание!
Информация на этой странице в стадии наполнения.
Если вы не увидели какой-то информации, или заметили неточность - пожалуйста сообщите нам!
Спасибо!
Команда RU-STAFF
Название аэропортаУфа
Название аэропорта (англ.)Ufa
Превышение449 ft. (136.9 m.)
Координаты54°33.6', 55°52.2'
Высота перехода5000ft
Эшелон переходаFL070
Коды ответчика6730-6731
Зона ОрВДСамара РПИ (UWWW)
Данные METARUWUU 060800Z 19006MPS CAVOK M08/M12 Q1010 R14R/350138 NOSIG
Проноз погоды (TAF)UWUU 060453Z 0606/0706 27003G08MPS 9999 BKN030 TXM06/0610Z TNM18/0703Z TEMPO 0606/0618 20006G11MPS 3100 -SHSN BR BKN011CB TEMPO 0618/0624 VRB01MPS 2100 -SN BR OVC007 TEMPO 0700/0706 34003G08MPS 3100 -SN BR OVC011
NOTAMshow/hide NOTAM
AWOS   TABLE

Информация о ВПП

ВПП Длина ВПП (м.) Покрытие Курс ВПП Частота ILS
14R3765Бетон138110.3
14L2516Асфальтобетон138108.3
32R2516Асфальтобетон318109.1
32L3765Бетон318 

Диспетчерские позиции

Позывной Наименование органа УВД Частота
UWUU_GNDУфа-Руление119.000
UWUU_TWRУфа-Старт120.900
UWUU_R_APPУфа-Круг124.000
UWUU_APPУфа-Подход126.000



Спутниковое изображение